FW0960 Weather Reports


Display with metric or nautical units.
time (UTC)temp
F
wind
direction
speed
MPH
gust
MPH
rain 1hr
in
rain 24hr
in
rain mn
in
humidity
%
barometer
mb
20260510224404 75 243 0.0 2.0 0.00 0.00 0.00 67 1013.6
20260510223403 75 243 0.0 1.0 0.00 0.00 0.00 68 1013.6
20260510222939 75 243 0.0 1.0 0.00 0.00 0.00 68 1013.6
20260510221901 75 243 0.0 1.0 0.00 0.00 0.00 68 1013.6
20260510220847 75 243 0.0 2.0 0.00 0.00 0.00 67 1013.6
20260510220344 75 243 0.0 2.0 0.00 0.00 0.00 66 1013.6
20260510214834 76 243 0.0 2.0 0.00 0.00 0.00 63 1013.8
20260510214334 76 243 0.0 2.0 0.00 0.00 0.00 63 1013.7
20260510213332 76 243 0.0 2.0 0.00 0.00 0.00 66 1013.6
20260510211831 76 243 0.0 2.0 0.00 0.00 0.00 65 1013.4
20260510211329 76 243 0.0 2.0 0.00 0.00 0.00 59 1013.5
20260510210829 77 243 0.0 2.0 0.00 0.00 0.00 60 1013.4
20260510210332 76 243 0.0 2.0 0.00 0.00 0.00 61 1013.3
20260510205827 76 243 0.0 2.0 0.00 0.00 0.00 60 1013.4
20260510205330 76 243 0.0 2.0 0.00 0.00 0.00 62 1013.4
20260510204830 76 243 0.0 2.0 0.00 0.00 0.00 62 1013.5
20260510204329 76 243 0.0 2.0 0.00 0.00 0.00 64 1013.4
20260510203830 75 243 0.0 2.0 0.00 0.00 0.00 63 1013.4
20260510202816 75 243 0.0 2.0 0.00 0.00 0.00 61 1013.6
20260510202315 76 243 0.0 2.0 0.00 0.00 0.00 61 1013.8
20260510201315 76 243 1.0 2.0 0.00 0.00 0.00 61 1013.8
20260510200308 76 243 0.0 2.0 0.00 0.00 0.00 62 1013.8
20260510195808 76 243 1.0 2.0 0.00 0.00 0.00 62 1013.7
20260510195310 75 243 1.0 2.0 0.00 0.00 0.00 62 1013.7
20260510194812 75 242 1.0 2.0 0.00 0.00 0.00 62 1013.7
20260510194312 75 239 0.0 2.0 0.00 0.00 0.00 61 1013.7
20260510193811 75 239 1.0 2.0 0.00 0.00 0.00 60 1013.7
20260510193314 75 239 1.0 2.0 0.00 0.00 0.00 60 1013.7
20260510192812 75 239 0.0 2.0 0.00 0.00 0.00 62 1013.8
20260510192316 75 238 0.0 2.0 0.00 0.00 0.00 63 1013.9
20260510191808 75 238 0.0 2.0 0.00 0.00 0.00 62 1013.8
20260510190815 75 238 0.0 2.0 0.00 0.00 0.00 66 1013.8
20260510190305 74 238 0.0 2.0 0.00 0.00 0.00 64 1014.2
20260510185804 75 238 1.0 2.0 0.00 0.00 0.00 64 1014.3
20260510185305 75 238 0.0 2.0 0.00 0.00 0.00 65 1014.1
20260510184807 75 238 1.0 2.0 0.00 0.00 0.00 66 1014.1
20260510184252 75 238 0.0 2.0 0.00 0.00 0.00 68 1014.2
20260510183743 74 236 1.0 2.0 0.00 0.00 0.00 66 1014.3
20260510182737 74 236 1.0 2.0 0.00 0.00 0.00 67 1014.3
20260510182240 74 236 1.0 2.0 0.00 0.00 0.00 70 1014.4
20260510181742 74 236 1.0 2.0 0.00 0.00 0.00 69 1014.4
20260510181242 74 235 1.0 2.0 0.00 0.00 0.00 69 1014.4
20260510180738 74 232 1.0 2.0 0.00 0.00 0.00 69 1014.5
20260510180238 74 231 1.0 3.0 0.00 0.00 0.00 68 1014.4
20260510175236 74 227 0.0 2.0 0.00 0.00 0.00 70 1014.5
20260510174732 74 226 1.0 2.0 0.00 0.00 0.00 69 1014.4
20260510174234 74 225 1.0 2.0 0.00 0.00 0.00 70 1014.4
20260510173738 73 226 1.0 3.0 0.00 0.00 0.00 70 1014.4
20260510173230 73 226 0.0 3.0 0.00 0.00 0.00 73 1014.2
20260510172731 73 224 0.0 2.0 0.00 0.00 0.00 72 1014.3
20260510172231 73 224 0.0 2.0 0.00 0.00 0.00 72 1014.4
20260510171730 73 224 1.0 2.0 0.00 0.00 0.00 74 1014.3
20260510171232 73 224 1.0 2.0 0.00 0.00 0.00 74 1014.3
20260510170734 73 222 1.0 2.0 0.00 0.00 0.00 73 1014.3
20260510170231 73 218 0.0 2.0 0.00 0.00 0.00 72 1014.4
20260510165732 73 215 0.0 2.0 0.00 0.00 0.00 72 1014.4
20260510165238 73 213 0.0 2.0 0.00 0.00 0.00 74 1014.4
20260510164728 73 213 1.0 2.0 0.00 0.00 0.00 74 1014.6
20260510164235 73 213 1.0 2.0 0.00 0.00 0.00 75 1014.6
20260510163734 73 213 0.0 2.0 0.00 0.00 0.00 74 1014.4
20260510163231 73 211 0.0 2.0 0.00 0.00 0.00 75 1014.5
20260510162731 73 211 0.0 2.0 0.00 0.00 0.00 75 1014.5
20260510162229 73 211 0.0 2.0 0.00 0.00 0.00 75 1014.4
20260510161733 73 210 0.0 2.0 0.00 0.00 0.00 73 1014.4
20260510160733 73 209 0.0 2.0 0.00 0.00 0.00 74 1014.5
20260510160232 73 209 0.0 2.0 0.00 0.00 0.00 75 1014.5
20260510155732 73 209 0.0 2.0 0.00 0.00 0.00 75 1014.7
20260510155230 73 207 0.0 2.0 0.00 0.00 0.00 73 1014.8
20260510154734 73 207 0.0 2.0 0.00 0.00 0.00 71 1014.7
20260510154230 73 207 0.0 2.0 0.00 0.00 0.00 73 1014.6
20260510153229 74 203 0.0 2.0 0.00 0.00 0.00 73 1014.6
20260510152724 73 202 0.0 2.0 0.00 0.00 0.00 75 1014.7
20260510152233 73 196 0.0 3.0 0.00 0.00 0.00 73 1014.7
20260510151722 73 196 0.0 3.0 0.00 0.00 0.00 73 1014.7
20260510150719 73 196 0.0 2.0 0.00 0.00 0.00 74 1014.7
20260510150217 73 196 0.0 2.0 0.00 0.00 0.00 72 1014.7
20260510145217 73 196 0.0 1.0 0.00 0.00 0.00 74 1014.7
20260510143709 73 196 0.0 1.0 0.00 0.00 0.00 74 1014.6
20260510143208 73 196 0.0 2.0 0.00 0.00 0.00 71 1014.6
20260510141708 72 196 0.0 2.0 0.00 0.00 0.00 67 1014.4
20260510141210 72 196 0.0 1.0 0.00 0.00 0.00 66 1014.3
20260510140709 71 197 0.0 4.0 0.00 0.00 0.00 67 1014.4
20260510140213 71 197 0.0 4.0 0.00 0.00 0.00 67 1014.4
20260510135705 71 194 0.0 3.0 0.00 0.00 0.00 68 1014.5
20260510135205 71 194 1.0 2.0 0.00 0.00 0.00 70 1014.5
20260510134703 71 198 1.0 1.0 0.00 0.00 0.00 72 1014.5
20260510134204 70 202 0.0 1.0 0.00 0.00 0.00 72 1014.4
20260510133702 70 201 1.0 2.0 0.00 0.00 0.00 73 1014.4
20260510132204 68 188 1.0 2.0 0.00 0.00 0.00 79 1014.3
20260510131708 68 187 1.0 2.0 0.00 0.00 0.00 81 1014.3
20260510131204 67 189 1.0 2.0 0.00 0.00 0.00 82 1014.4
20260510130709 67 194 1.0 4.0 0.00 0.00 0.00 84 1014.4
20260510130204 66 197 1.0 4.0 0.00 0.00 0.00 85 1014.4
20260510125702 65 191 1.0 2.0 0.00 0.00 0.00 88 1014.2
20260510125202 64 166 0.0 1.0 0.00 0.00 0.00 90 1014.1
20260510124702 64 133 0.0 2.0 0.00 0.00 0.00 92 1014.0
20260510123701 62 74 0.0 0.0 0.00 0.00 0.00 96 1013.8
20260510123206 62 74 0.0 1.0 0.00 0.00 0.00 96 1013.6
20260510122201 61 74 0.0 1.0 0.00 0.00 0.00 97 1013.6
20260510121708 61 74 0.0 2.0 0.00 0.00 0.00 98 1013.5
20260510121205 60 74 0.0 2.0 0.00 0.00 0.00 98 1013.5
20260510120707 60 74 0.0 1.0 0.00 0.00 0.00 98 1013.6
20260510115202 59 74 0.0 2.0 0.00 0.00 0.00 99 1013.4
20260510114701 59 74 0.0 2.0 0.00 0.00 0.00 99 1013.3
20260510114203 58 74 0.0 0.0 0.00 0.00 0.00 99 1013.3
20260510113204 58 74 0.0 0.0 0.00 0.00 0.00 98 1013.1
20260510112709 57 74 0.0 0.0 0.00 0.00 0.00 99 1013.1
20260510112202 57 74 0.0 0.0 0.00 0.00 0.00 98 1013.1
20260510111704 57 74 0.0 0.0 0.00 0.00 0.00 98 1013.1
20260510110204 56 74 0.0 0.0 0.00 0.00 0.00 98 1012.9
20260510105701 56 74 0.0 0.0 0.00 0.00 0.00 98 1012.8
20260510105205 55 74 0.0 0.0 0.00 0.00 0.00 98 1012.7
20260510104700 55 74 0.0 0.0 0.00 0.00 0.00 98 1012.6
20260510103703 55 74 0.0 0.0 0.00 0.00 0.00 98 1012.5
20260510103211 55 74 0.0 0.0 0.00 0.00 0.00 98 1012.4
20260510102700 55 74 0.0 0.0 0.00 0.00 0.00 98 1012.4
20260510102204 55 74 0.0 0.0 0.00 0.00 0.00 98 1012.5
20260510101703 55 74 0.0 0.0 0.00 0.00 0.00 97 1012.4
20260510100702 55 74 0.0 0.0 0.00 0.00 0.00 97 1012.2
20260510100204 55 74 0.0 0.0 0.00 0.00 0.00 97 1012.3
20260510094705 56 74 0.0 0.0 0.00 0.00 0.00 97 1012.1
20260510094220 56 74 0.0 0.0 0.00 0.00 0.00 97 1012.0
20260510093704 56 74 0.0 0.0 0.00 0.00 0.00 97 1011.9
20260510093204 56 74 0.0 0.0 0.00 0.00 0.00 97 1011.7
20260510091703 56 74 0.0 0.0 0.00 0.00 0.00 97 1011.7
20260510091204 56 74 0.0 0.0 0.00 0.00 0.00 96 1011.8
20260510090704 56 74 0.0 0.0 0.00 0.00 0.00 97 1011.6
20260510090207 56 74 0.0 0.0 0.00 0.00 0.00 97 1011.4
20260510085706 56 74 0.0 0.0 0.00 0.00 0.00 97 1011.4
20260510085207 56 74 0.0 0.0 0.00 0.00 0.00 96 1011.4
20260510084705 56 74 0.0 0.0 0.00 0.00 0.00 96 1011.3
20260510084205 57 74 0.0 0.0 0.00 0.00 0.00 96 1011.3
20260510083705 57 74 0.0 0.0 0.00 0.00 0.00 96 1011.3
20260510083206 57 74 0.0 0.0 0.00 0.00 0.00 96 1011.4
20260510082706 57 74 0.0 0.0 0.00 0.00 0.00 96 1011.3
20260510082203 57 74 0.0 1.0 0.00 0.00 0.00 96 1011.3
20260510080703 58 74 0.0 0.0 0.00 0.00 0.00 95 1011.1
20260510080202 58 74 0.0 0.0 0.00 0.00 0.00 95 1011.2
20260510075705 58 74 0.0 1.0 0.00 0.00 0.00 95 1011.1
20260510074701 59 74 0.0 0.0 0.00 0.00 0.00 94 1011.2
20260510074159 59 74 0.0 0.0 0.00 0.00 0.00 94 1011.2
20260510073653 59 74 0.0 0.0 0.00 0.00 0.00 94 1011.4
20260510073145 60 74 0.0 0.0 0.00 0.00 0.00 94 1011.3
20260510072643 60 74 0.0 1.0 0.00 0.00 0.00 93 1011.2
20260510072141 60 74 0.0 2.0 0.00 0.00 0.00 93 1011.4
20260510071638 61 74 0.0 2.0 0.00 0.00 0.00 94 1011.1
20260510071144 60 65 0.0 2.0 0.00 0.00 0.00 95 1011.1
20260510070638 60 61 1.0 3.0 0.00 0.00 0.00 95 1011.0
20260510070138 60 46 1.0 4.0 0.00 0.00 0.00 96 1011.1
20260510065639 59 40 0.0 4.0 0.00 0.00 0.00 97 1011.1
20260510065138 58 46 0.0 1.0 0.00 0.00 0.00 97 1011.1
20260510064639 58 43 0.0 1.0 0.00 0.00 0.00 97 1011.2
20260510064133 58 43 0.0 1.0 0.00 0.00 0.00 97 1011.2
20260510063633 58 43 0.0 0.0 0.00 0.00 0.00 97 1011.1
20260510063130 57 43 0.0 0.0 0.00 0.00 0.00 96 1011.2
20260510062631 57 43 0.0 0.0 0.00 0.00 0.00 96 1011.2
20260510062131 57 43 0.0 0.0 0.00 0.00 0.00 96 1011.2
20260510061630 57 43 0.0 1.0 0.00 0.00 0.00 96 1011.2
20260510061131 57 43 0.0 3.0 0.00 0.00 0.00 96 1011.4
20260510060629 58 42 0.0 3.0 0.00 0.00 0.00 96 1011.3
20260510060135 58 40 0.0 0.0 0.00 0.00 0.00 96 1011.2
20260510055634 58 40 0.0 0.0 0.00 0.00 0.00 96 1011.4
20260510055133 58 40 0.0 0.0 0.00 0.00 0.00 95 1011.7
20260510054632 58 40 0.0 0.0 0.00 0.00 0.00 95 1011.6
20260510054138 58 40 0.0 0.0 0.00 0.00 0.00 95 1011.7
20260510053633 58 40 0.0 1.0 0.00 0.00 0.00 95 1011.7
20260510053139 58 40 0.0 1.0 0.00 0.00 0.00 95 1011.6
20260510052130 59 39 0.0 0.0 0.00 0.00 0.00 95 1011.6
20260510051632 59 39 0.0 0.0 0.00 0.00 0.00 94 1011.6
20260510051130 59 39 0.0 0.0 0.00 0.00 0.00 94 1011.6
20260510050635 59 39 0.0 0.0 0.00 0.00 0.00 94 1011.6
20260510050137 59 39 0.0 0.0 0.00 0.00 0.00 94 1011.6
20260510045633 59 39 0.0 0.0 0.00 0.00 0.00 94 1011.6
20260510045131 59 39 0.0 1.0 0.00 0.00 0.00 94 1011.6
20260510044633 59 39 0.0 1.0 0.00 0.00 0.00 94 1011.6
20260510044133 60 39 0.0 0.0 0.00 0.00 0.00 94 1011.7
20260510043130 60 39 0.0 0.0 0.00 0.00 0.00 94 1011.6
20260510042630 60 39 0.0 0.0 0.00 0.00 0.00 93 1011.6
20260510042132 60 39 0.0 0.0 0.00 0.00 0.00 93 1011.6
20260510041634 60 39 0.0 0.0 0.00 0.00 0.00 93 1011.6
20260510041132 60 39 0.0 0.0 0.00 0.00 0.00 93 1011.5
20260510040628 60 39 0.0 0.0 0.00 0.00 0.00 93 1011.7
20260510040131 60 39 0.0 0.0 0.00 0.00 0.00 93 1011.6
20260510035626 60 39 0.0 0.0 0.00 0.00 0.00 93 1011.6
20260510035126 60 39 0.0 0.0 0.00 0.00 0.00 93 1011.6
20260510034628 60 39 0.0 0.0 0.00 0.00 0.00 93 1011.6
20260510034123 60 39 0.0 0.0 0.00 0.00 0.00 93 1011.5
20260510033127 60 39 0.0 0.0 0.00 0.00 0.00 93 1011.4
20260510032621 60 39 0.0 0.0 0.00 0.00 0.00 93 1011.2
20260510031619 61 39 0.0 0.0 0.00 0.00 0.00 92 1011.4
20260510031124 61 39 0.0 0.0 0.00 0.00 0.00 92 1011.3
20260510030142 61 39 0.0 0.0 0.00 0.00 0.00 92 1011.2
20260510024611 61 39 0.0 0.0 0.00 0.00 0.00 92 1011.2
20260510024112 62 39 0.0 0.0 0.00 0.00 0.00 92 1011.1
20260510023108 62 39 0.0 0.0 0.00 0.00 0.00 93 1011.0
20260510022602 62 39 0.0 0.0 0.00 0.00 0.00 93 1011.1
20260510022110 62 39 0.0 0.0 0.00 0.00 0.00 93 1011.1
20260510021603 62 39 0.0 0.0 0.00 0.00 0.00 93 1011.2
20260510020559 62 39 0.0 0.0 0.00 0.00 0.00 92 1011.1
20260510015041 62 39 0.0 0.0 0.00 0.00 0.00 92 1010.9
20260510014535 63 39 0.0 0.0 0.00 0.00 0.00 91 1010.9
20260510013532 63 39 0.0 0.0 0.00 0.00 0.00 91 1010.9
20260510012529 63 39 0.0 0.0 0.00 0.00 0.00 91 1010.9
20260510012034 64 39 0.0 0.0 0.00 0.00 0.00 90 1010.9
20260510011534 64 39 0.0 0.0 0.00 0.00 0.00 90 1010.8
20260510011030 64 39 0.0 0.0 0.00 0.00 0.00 90 1010.8
20260510010531 64 39 0.0 0.0 0.00 0.00 0.00 89 1010.8
20260510010031 64 39 0.0 0.0 0.00 0.00 0.00 89 1010.8
20260510005535 65 39 0.0 0.0 0.00 0.00 0.00 89 1010.8
20260510005029 65 39 0.0 0.0 0.00 0.00 0.00 88 1010.7
20260510004031 66 39 0.0 0.0 0.00 0.00 0.00 87 1010.7
20260510003531 66 39 0.0 0.0 0.00 0.00 0.00 87 1010.6
20260510003032 66 39 0.0 0.0 0.00 0.00 0.00 86 1010.5
20260510002533 66 39 0.0 0.0 0.00 0.00 0.00 86 1010.5
20260510002047 67 39 0.0 0.0 0.00 0.00 0.00 85 1010.5
20260510001532 67 39 0.0 0.0 0.00 0.00 0.00 85 1010.5
20260510000518 67 39 0.0 0.0 0.00 0.00 0.00 84 1010.3
20260510000020 68 39 0.0 0.0 0.00 0.00 0.00 84 1010.4
20260509235520 68 39 0.0 0.0 0.00 0.00 0.00 84 1010.2
20260509234518 69 39 0.0 0.0 0.00 0.00 0.00 83 1010.3
20260509234016 69 39 0.0 0.0 0.00 0.00 0.00 82 1010.3
20260509233505 69 39 0.0 0.0 0.00 0.00 0.00 82 1010.3
20260509233014 69 39 0.0 0.0 0.00 0.00 0.00 82 1010.3
20260509232509 70 39 0.0 0.0 0.00 0.00 0.00 81 1010.1
20260509232005 70 39 0.0 0.0 0.00 0.00 0.00 80 1010.1
20260509231505 70 39 0.0 0.0 0.00 0.00 0.00 80 1010.0
20260509231002 70 39 0.0 0.0 0.00 0.00 0.00 79 1010.0
20260509230501 70 39 0.0 1.0 0.00 0.00 0.00 78 1009.9
20260509230006 71 39 0.0 1.0 0.00 0.00 0.00 78 1009.9
20260509225503 71 39 0.0 0.0 0.00 0.00 0.00 77 1009.8
20260509225003 71 39 0.0 0.0 0.00 0.00 0.00 76 1009.8